maraton-reyes-190x780
maraton-reyes-190x780
atletismo
23/01/2012

Siempre primero

A mediados de diciembre obtuvo el sexto puesto entre los 2.300 participantes del Maratón de Castellón en España donde corrió los 42 kilómetros en 2h18m09s que lo situaron a tan sólo nueve segundos de la marca B clasificatoria para los Juegos Olímpicos que anhela lograr en abril próximo en Rotterdam. Como forma de calentar motores, retornó a las pistas argentinas y lo hizo con un triunfo porque el atleta santafesino Nicolás Ternavasio subió a la cima del podio de la segunda edición de los 10K CRAS donde su esposa Verónica Ramírez se colgó la medalla de bronce en la clasificación general femenina.

Nacido hace veintiocho años en el pueblo de San Vicente, Nicolás Ternavasio conquistó la Copa Challenger al sumar dos victorias consecutivas en esta prueba organizada por el Club Rafaelino de Atletismo y Servicios gracias a correr los diez kilómetros en 31 minutos y 5 segundos que lo convirtieron en el más veloz de los 116 competidores que cruzaron la meta. Con una velocidad promedio de tres minutos y seis segundos por kilómetro a pesar del cansancio que arrastra de la temporada 2011 en la que compitió en tres maratones ya que además de los 42K españoles logró un cuerto puesto en el Iberoamericano de Caracas y ganó en Rosario, Nico Ternavasio superó por un minuto y once segundos a su escolta, Héctor Gómez de la localidad de Lehmann, mientras que el entrerriano Walter Jacob arribó tercero con 34m33s. seguido del cordobés Eduardo González y el local José Ledesma, cuarto y quinto con 35m45s y 36m33s respectivamente.

Entre las mujeres se impuso Isabel Ponce al correr los diez kilómetros en 38 minutos y 27 segundos que equivalen a un ritmo de tres minutos y cincuenta para cada mil metros. En segundo lugar se situó Fabiana Gaitán con 39 minutos exactos, ni un segundo más ni uno menos, por delante de Verónica Ramírez, esposa de Ternavasio, cuyos 44 minutos y 9 segundos le valieron la tercera ubicación entre las veinte participantes de esta segunda edición.

Corredor Edad Sexo Ciudad Tiempo Prom.
1 TERNAVASIO, NICOLAS 28 M SAN VICENTE 31:05:41 3:06:34
2 GOMEZ, HECTOR PASCUAL 25 M LEHMANN 32:16:32 3:13:39
3 JACOB, WALTER 24 M CRESPO (E.R.) 34:33:39 3:27:22
4 GONZALEZ, EDUARDO FELICIANO 26 M SUCO (CBA) 35:45:00 3:34:30
5 LEDESMA, JOSE 41 M RAFAELA 36:33:00 3:39:18
6 MANSILLA, CARLOS 29 M AÑATUYA (S.E.) 37:11:26 3:43:09
7 ORUNDEZ AYALA, JUAN CARLOS 28 M RAFAELA 37:46:01 3:46:36
8 PEREYRA, JUAN MARCELO 37 M PARANA (E.R.) 38:25:00 3:50:30
9 PONCE, ISABEL PATRICIA 37 F ESPERANZA 38:27:00 3:50:42
10 KURIGER, FERNANDO 30 M RAFAELA 38:30:13 3:51:01
11 D´ESPOSITO, MIGUEL OMAR 44 M ESPERANZA 38:47:45 3:52:47
12 GAITAN. FABIANA 41 F SANTA FE 39:00:16 3:54:02
13 BETTIG, GABRIEL 27 M FRANCK 39:04:00 3:54:24
14 RODRIGUEZ, OSVALDO 37 M RAFAELA 39:30:00 3:57:00
15 SIMI, LUIS EDUARDO 40 M BARRANCAS 39:53:09 3:59:19
16 NIEVAS, RICARDO 55 M LA LUCILA 41:15:09 4:07:31
17 CORDOBA, MILLAN 51 M SANTA FE 41:50:00 4:11:00
18 AGUILERA, BRUNO 16 M PORTEÑA (CBA) 42:00:00 4:12:00
19 AGUILERA, TOMAS GUILLERMO 14 M PORTEÑA (CBA) 42:02:08 4:12:13
20 MAGALLANES, ARIEL 20 M RAFAELA 42:04:00 4:12:24
21 REHLING, RUBEN IRMO 45 M ESPERANZA 42:21:26 4:14:09
22 REINHARDT, MARIANO 36 M RAFAELA 42:44:07 4:16:25
23 SICURELLA, JORGE 37 M RAFAELA 42:48:07 4:16:49
24 SOSA, OSCAR DARIO 36 M BANDERA (S.E) 43:14:00 4:19:24
25 STENDERUP, DAVID 39 M RAFAELA 43:27:23 4:20:44
26 CARAVARIO, FRANCO 19 M RAFAELA 43:37:23 4:21:44
27 CULASSO, EDUARDO 50 M RAFAELA 43:46:45 4:22:41
28 BONETTO, CESAR 39 M RAFAELA 44:07:26 4:24:45
29 RAMIREZ, VERONICA JUDIT 26 F SAN VICENTE 44:09:13 4:24:55
30 GUERRERO, LUIS ALBERTO 40 M SANTA FE 44:44:00 4:28:24
31 TOLEDO, GONZALO 21 M RAFAELA 44:45:00 4:28:30
32 CASSINA, ANDRES 34 M RAFAELA 44:57:23 4:29:44
33 PAROLA, SILVIO 52 M RAFAELA 45:02:20 4:30:14
34 PERREN, HECTOR A. 53 M S.J. NORTE 45:05:54 4:30:35
35 TERNAVASIO, FABRICIO ANDRES 25 M SAN VICENTE 45:30:00 4:33:00
36 CARPIO, WALTER H. 33 M RAFAELA 45:45:45 4:34:35
37 GUERRERO, GASTON 36 M RAFAELA 45:46:45 4:34:41
38 GOMEZ, HUGO OMAR CD M SAN CRISTOBAL 45:51:32 4:35:09
39 PAREDES, WALTER 23 M SAN CRISTOBAL 45:57:32 4:35:45
40 DRUBICH, DIEGO 42 M RAFAELA 46:03:00 4:36:18
41 BISIO, FERNANDO DAMIAN 34 M COLASTINE NORTE 46:45:00 4:40:30
42 MARTINEZ, RAFAEL 36 M SANTA FE 46:58:09 4:41:49
43 RAMINELLI, DANIEL 33 M RAFAELA 47:06:32 4:42:39
44 SANMARTINO, GUSTAVO H. 38 M RAFAELA 47:09:00 4:42:54
45 CATTALIN, SANTIAGO FEDERICO 57 M SANTO TOME 47:10:00 4:43:00
46 BORLLE, MARIANA 42 F RAFAELA 47:23:00 4:44:18
47 BERMUDEZ, RODOLFO 41 M SANTA FE 47:30:06 4:45:01
48 DONNET, JOSE 47 M RAFAELA 47:41:09 4:46:07
49 LLULL, DIEGO 30 M RAFAELA 47:42:00 4:46:12
50 ORTIZ, PEDRO 47 M RAFAELA 47:56:00 4:47:36
51 VEGA, JAVIER 40 M SANTA FE 48:10:00 4:49:00
52 BOLZICO, LUCIANO 33 M SUNCHALES 48:12:00 4:49:12
53 PERETTI, DIEGO 42 M RAFAELA 48:18:36 4:49:52
54 TOLEDO, LUIS 50 M RAFAELA 48:20:08 4:50:01
55 ALVARENGA, PABLO 19 M PARANA (E.R.) 48:34:36 4:51:28
56 WEINER, JAVIER 35 M RAFAELA 48:39:32 4:51:57
57 BARTOMIOLI, MARTIN 37 M RAFAELA 48:48:00 4:52:48
58 CAZZANIGA, CESAR LUIS 32 M RAFAELA 48:59:13 4:53:55
59 VALENTINUZZI, IVANA 43 F SANTO TOME 49:13:13 4:55:19
60 CHICCO, RICARDO 47 M RAFAELA 49:18:00 4:55:48
61 GAMARRA, SERGIO RAUL 44 M SAN JORGE 49:21:36 4:56:10
62 BRUNO, JOSE 52 M RAFAELA 49:27:32 4:56:45
63 YOSSEN, DANIEL 43 M FRANCK 49:33:00 4:57:18
64 DIAZ, CLAUDIO JULIO 49 M MORON (B.AIRES) 49:37:00 4:57:42
65 BENITEZ, ANGEL EUGENIO 57 M SANTA FE 49:47:00 4:58:42
66 RODRIGUEZ MESON, SILVINA 38 F RAMONA 49:52:00 4:59:12
67 VILLARREAL, DAMIAN 25 M RAFAELA 49:55:16 4:59:32
68 SANTI, MIRKO SEBASTIAN 33 M RAFAELA 49:56:01 4:59:36
69 TORANZO, FERNANDO 17 M PORTEÑA (CBA) 49:56:39 4:59:40
70 MARZIONI, FERNANDO 45 M RAFAELA 51:09:09 5:06:55
71 GARCIA, RODRIGO 30 M SUSANA 52:21:00 5:14:06
72 POSSETTO, FERNANDO 45 M RAFAELA 52:22:00 5:14:12
73 GARCIA, MARIA JOSE 28 F SANTA FE 52:34:07 5:15:25
74 CARABALLO, MONICA ALEJANDRA 36 F PARANA (E.R.) 52:37:45 5:15:47
75 MANFREDI, MARIANO ANDRES 38 M RAFAELA 52:53:00 5:17:18
76 CARPIO, AUGUSTO CARLOS 62 M PARANA (E.R.) 52:56:45 5:17:41
77 COSTMAGNA, GABRIEL HERNAN 38 M RAFAELA 53:22:00 5:20:12
78 SAUCEDO, ANTONIO 50 M RAFAELA 53:22:29 5:20:15
79 DONNET, ROCIO 19 F RAFAELA 53:47:23 5:22:44
80 GHIBERTO, DARIO 50 M RAFAELA 53:48:00 5:22:48
81 DEMARTIN, ROCIO 19 F RAFAELA 54:02:01 5:24:12
82 D’ELIA, ARIEL 35 M SANTA FE 54:05:48 5:24:35
83 CARDOZO, ELBA SUSANA 37 F EST. CLUCELLAS 54:28:54 5:26:53
84 SANCHIS, ANIBAL 36 M RAFAELA 54:32:51 5:27:17
85 ARGAÑARAZ, OSCAR V. 56 M RAFAELA 55:00:50 5:30:05
86 BERTOLINI, JULIAN LEONEL 19 M RAFAELA 55:08:50 5:30:53
87 GUNTERN, GUILLERMO 45 M RAFAELA 55:22:00 5:32:12
88 PEON, GUSTAVO 43 M RAFAELA 55:37:00 5:33:42
89 VICENTIN, MONICA A. 43 F SANTA FE 55:42:00 5:34:12
90 CAPELLINO, JOSE L. 43 M SUNCHALES 55:46:46 5:34:41
91 MATEO, VICTOR ENRIQUE 59 M SAN FRANCISCO (CBA) 55:53:03 5:35:18
92 ROSSO, CARLOS A. 61 M RAFAELA 55:57:21 5:35:44
93 VELIZ, JUAN JOSE 30 M RAFAELA 56:01:48 5:36:11
94 BARONETTI, GERMAN 32 M RAFAELA 56:03:47 5:36:23
95 SOVRANO, MARIA GUADALUPE 46 F SANTA FE 56:04:57 5:36:30
96 BARAVALLE, JOSE M. 62 M SANTA FE 56:52:05 5:41:12
97 VENCE, LUIS 43 M RAFAELA 56:58:00 5:41:48
98 ARAGON, LUISA 35 F AÑATUYA (S.E.) 57:25:00 5:44:30
99 KLOSTER, SOFIA 15 F RAFAELA 57:45:58 5:46:36
100 BLANZARI, REINALDO 57 M SAN FRANCISCO (CBA) 57:49:14 5:46:55
101 PIUZZI, ROCIO SOLEDAD 18 F RAFAELA 57:54:39 5:47:28
102 FOGOLIN, AGUSTIN CARLOS 19 M RAFAELA 57:55:00 5:47:30
103 MORILLA, JUAN 62 M SANTA FE 58:08:43 5:48:52
104 AVILA, LUCIO 16 M RAFAELA 58:17:32 5:49:45
105 RODRIGUEZ, FEDERICO 15 M RAFAELA 58:18:00 5:49:48
106 GINEZ, JAVIER 38 M RAFAELA 58:28:00 5:50:48
107 FAVARO, MAURICIO 39 M RAFAELA 58:55:12 5:53:31
108 BISIO, ANDRES ALFREDO 26 M SANTA FE 58:57:00 5:53:42
109 BECCACECE, DIEGO 32 M RAFAELA 61:26:29 6:08:39
110 GARETTO, HORACIO 51 M RAFAELA 61:44:00 6:10:24
111 TRONCOSO, YANINA 35 F RAFAELA 62:11:25 6:13:08
112 DAVICINO, RENE 57 M RAFAELA 62:17:00 6:13:42
113 BARONETTI, MONICA 50 F RAFAELA 62:37:00 6:15:42
114 DOCE, GRACIELA 60 F COLASTINE NORTE 64:16:00 6:25:36
115 PEREYRA, GABRIELA 17 F PARANA (E.R.) 66:25:00 6:38:30
116 VELIZ, FRANCISCO 78 M RAFAELA 74:24:00 7:26:24

Tags: , , , , , ,

  • opinión de los lectores


    EL DEPORNAUTA no publicará comentarios inapropiados ni acusaciones infundadas. Tampoco tendrán cabida las opiniones que incluyan insultos o groseras descalificaciones. Los comentarios publicados son de exclusiva responsabilidad de sus autores que podrán ser pasibles de las sanciones legales que correspondan por sus dichos

    Deja tu comentario!

    mas noticias

    Elegí tu distancia, elegí Ultra Endurance Mendoza

    Inscribite con descuento en el ultramaratón de montaña que también tendrá carreras de 42, 21 y 12 kilómetros en el Cerro Arco.

    afiche ultra cerro arco horizontal

    Yoga para running, natación y ciclismo

    Beneficios de esta disciplina milenaria para quienes corren, nadan o pedalean.

    yoga 3

    Eldepornauta cumple 11 años

    El Diario Digital de los Atletas inicia su segunda década difundiendo la pasión por las disciplinas olímpicas vía web, redes sociales y radio.

    radio monitor depornauta 2

    Cheque volador

    Un triple campeón olímpico correrá el Maratón de Dubai buscando un premio de 300.000 euros.

    bekele 2

    Running en Eldepornauta RADIO

    Hoy mirá por web o celular nuestro programa Nº182 donde el corredor Víctor Aufgang hablará sobre experiencia en el World Marathon Major que reflejó en su libro Entre Máquinas y Zapatillas.

    victor libro 2

    Corré y ganá un auto 0Km.

    Inscripción con descuento para los 10K Maratón de Reyes en Concordia que sorteará un Chevrolet QQ.

    auto maraton reyes 2014

    El Papá Noel más rápido del mundo

    El maratonista olímpico Chema Martínez ganó los 5K de Madrid que batieron el récord Guinnes con 5.173 finisher disfrazados de Santa Claus.

    chema martinez papa noel

    Mejorá la técnica de pedaleo

    Consejos para pedalear más rápido con menos esfuerzo en ciclismo de ruta, MTB o triatlón.

    mtb 1

    Yoga para running, natación y ciclismo

    Beneficios de esta disciplina milenaria para quienes corren, nadan o pedalean.

    yoga 3

    Eldepornauta cumple 11 años

    El Diario Digital de los Atletas inicia su segunda década difundiendo la pasión por las disciplinas olímpicas vía web, redes sociales y radio.

    radio monitor depornauta 2

    Orgullo del deporte argentino

    El atleta paralímpico Andrés Biga ganó los 42K del Maratón de Florida en Estados Unidos en categoría HandCycle.

    biga andres 2

    Héroes de la bicicleta

    Un grupo de ciclistas y triatletas rescató a un matrimonio que estaba atrapado entre los hierros de un auto que volcó en la ruta 2.

    burgos peloton

    Se salvaron de milagro

    Un pelotón de ciclistas pasó pedaleando a metros de un automóvil que venía dando tumbos frente a ellos.

    ciclismo peloton auto 1

    Suspendido para siempre

    El ciclista italiano Luca Benedetti fue sancionado con la máxima pena por incurrir en doping por segunda vez en cuatro años.

    benedetti luca festejo 1

    A la cárcel por el maratón acuático

    El organizador de una carrera en el Río Paraná y su encargado de seguridad fueron condenados a penas de prisión por la muerte de ocho nadadores.

    tragedia parana 1

    El mejor equipo del país

    El Club Universitario de Córdoba conquistó el campeonato argentino de natación en pileta larga incluyendo dos récords nacionales.

    club universitario 1

    Yoga para running, natación y ciclismo

    Beneficios de esta disciplina milenaria para quienes corren, nadan o pedalean.

    yoga 3

    Eldepornauta cumple 11 años

    El Diario Digital de los Atletas inicia su segunda década difundiendo la pasión por las disciplinas olímpicas vía web, redes sociales y radio.

    radio monitor depornauta 2

    El factor mental en aguas abiertas

    Ejercicios para nadar en ríos, lagos o mares en forma distendida a pesar de las condiciones climáticas.

    aguas-abiertas-1-656x387

    Motor fuera de borda

    A sus 18 años, Santiago Grassi se coronó campeón argentino de mayores con récord argentino juvenil en pileta larga.

    grassi santiago mariposa 2

    Récord argentino

    La nadadora cordobesa Andrea Berrino batió una nueva plusmarca nacional.

    berrino andrea primer plano 1

    Mejorá la técnica de pedaleo

    Consejos para pedalear más rápido con menos esfuerzo en ciclismo de ruta, MTB o triatlón.

    mtb 1

    Yoga para running, natación y ciclismo

    Beneficios de esta disciplina milenaria para quienes corren, nadan o pedalean.

    yoga 3

    Eldepornauta cumple 11 años

    El Diario Digital de los Atletas inicia su segunda década difundiendo la pasión por las disciplinas olímpicas vía web, redes sociales y radio.

    radio monitor depornauta 2

    Resultados Half Triatlón Mar del Plata

    Clasificación oficial con tiempos parciales de la 14º edición de distancia IronMan 70.3

    iss

    El factor mental en aguas abiertas

    Ejercicios para nadar en ríos, lagos o mares en forma distendida a pesar de las condiciones climáticas.

    aguas-abiertas-1-656x387

    Héroes de la bicicleta

    Un grupo de ciclistas y triatletas rescató a un matrimonio que estaba atrapado entre los hierros de un auto que volcó en la ruta 2.

    burgos peloton

    Se salvaron de milagro

    Un pelotón de ciclistas pasó pedaleando a metros de un automóvil que venía dando tumbos frente a ellos.

    ciclismo peloton auto 1

    Elegí tu distancia, elegí Ultra Endurance Mendoza

    Inscribite con descuento en el ultramaratón de montaña que también tendrá carreras de 42, 21 y 12 kilómetros en el Cerro Arco.

    afiche ultra cerro arco horizontal

    Eldepornauta cumple 11 años

    El Diario Digital de los Atletas inicia su segunda década difundiendo la pasión por las disciplinas olímpicas vía web, redes sociales y radio.

    radio monitor depornauta 2

    Un cocodrilo mató a un golfista

    Un reptil de cuatro metros de largo atacó mortalmente a un jugador en una cancha sudafricana.

    cocodrilo golf 1

    Yoga y deporte

    Una disciplina milenaria que también aporta beneficios específicos para quienes corren, nadan o pedalean.

    yoga clase 1

    Corrió 1.000 Km. en el desierto

    La ultramaratonista sorda mexicana Isis Breiter conquistó el circuto 4 Deserts Challenger en modalidad non-stop cargando una mochila de doce kilos.

    breiter isis 1

    Un perro acompañó 400 Km. al Peak Perfomance Team

    El equipo adoptó al can que los escoltó 6 días hasta cruzar la meta del mundial de carreras de aventuras en Ecuador.

    perro equipo aventura

    Alberto Contador escaló el Kilimanjaro

    Tras ganar la Vuelta a España, el ciclista y sus compañeros del equipo Tinkoff Saxo abandonaron la bicicleta para subir la montañana más alta de África.

    contador kilimanjaro

    Dream Team

    Se lanzó la Asociación de Marketing Deportivo de la Argentina que reúne a los principales profesionales a nivel nacional.

    amda

    Racing campeón

    La Academia derrotó a Godoy Cruz conquistando un nuevo título argentino que lo clasificó a la Copa Libertadores 2015.

    racing

    El mejor equipo del año

    Campeón de la Copa Sudamericana, River Plate tiene chance de conquistar el título local siempre que Racing no le gane a Godoy Cruz.

    river plantel 2014

    River campeón

    El conjunto millonario conquistó la Copa Sudamericana al derrotar al Atlético Nacional de Colombia.

    river festejo 2

    Argentina subcampeón

    La selección nacional de fútbol para ciegos perdió la final de la Copa del Mundo ante Brasil en Japón.

    murcielagos 1

    River ganó a lo Boca

    A pura garra y con un penal atajado por su arquero a los quince segundos, el conjunto millonario avanzó a la final de la Copa Sudamericana.

    river festejo 1

    Golazo de Jonás Gutíerrez, venció al cáncer

    El futbolista recibió el alta médica tras superar un tumor en un testículo que no le impidió correr los 42K del Maratón de Buenos Aires.

    jonas gutierrez 1

    Navratilova se casó con Miss URSS

    La mejor tenista de la historia contrajo matrimonio con una modelo, una década y media más joven que ella.

    navratilova casamiento 1

    Del Potro jugará el Abierto de Australia

    El tenista tandilense volverá a empuñar una raqueta después de un año sin competir a raíz de una lesión.

    del potro primer plano 1

    Argentina tiene nuevo capitán de Copa Davis

    El ex tenista Daniel Orsanic fue designado como reemplazante de Martín Jaite para dirigir al equipo nacional en su debut ante Brasil.

    orsanic daniel 1

    Dos títulos en un fin de semana

    El tenista argentino Guido Pella se coronó campeón del Challenger de Lima tanto en sigle como doble masculino.

    pella guido reves 1

    Ganó Federer y Suiza es campeón de Copa Davis

    El mejor tenista de la historia venció a Richard Gasquet sellando el 3 a 1 ante Francia en la final de la Ensaladera de Plata.

    federer reves 3

    Cinco tenistas argentinos en el Top-100

    El tenis nacional tiene cinco jugadores entre los cien mejores del ranking mundial que lidera el serbio Novak Djokovic.

    mayer leo primer plano 1

    El maestro faltó a clase

    Roger Federer no jugó la final del Master de tenis donde Novak Djokovic se coronó campeón por cuarta vez, la tercera en forma consecutiva.

    federer roger drive azul 1

    Resultados Half Triatlón Mar del Plata

    Clasificación oficial con tiempos parciales de la 14º edición de distancia IronMan 70.3

    iss

    La usina del running

    Los 10K Gran Maratón Maccari reunieron a más de 200 corredores incluyendo una veintena de atletas de elite. RESULTADOS.

    maccari largada 1

    Resultados Triatlón Gualeguaychú

    Clasificación oficial de la tercera fecha del campeonato entrerriano.

    rivero victoria pedestrismo 1

    Resultados Triatlón de Azul

    Clasificación oficial de la prueba combinada bonaerense de distancia olímpica.

    ortega veronica azul 1

    Resultados Triatlón Valle María

    Clasificación oficial de la 2º fecha del campeonato entrerriano de triatlón.

    podio triatlon parana

    Resultados Triatlón San Pedro

    Clasificación oficial de la prueba combinada bonaerense tanto en distancia olímpico como sprint.

    baca jorge pedestrismo 1

    Resultados Maratón Acuático Pilar

    Clasificación de la fecha inicial del Circuito Lagos de Rocío de natación en aguas abiertas.

    aguas abiertas pilar 2

    Triple oro para Miguelena

    El nadador marplatense conquistó los títulos nacionales de 50, 100 y 200 metros pecho del campeonato argentino donde logró la mejor marca técnica.

    miguelena pecho 1

    Liebres nocturnas

    Nadia Rodríguez ganó la Corrida de Cipolletti en Río Negro donde Matías Roht escoltó al brasilero Gilmar Lopes en el podio masculino.

    cipolletti largada 1

    Triunfo argentino en Uruguay

    La corredora bonaerense Nadia Rodríguez ganó los 8K Doble San Antonio en Piriápolis donde sumó su tercera victoria de la temporada.

    maraton uruguay largada nocturna 1

    En la cima del podio

    El ciclista santafesino Demis Aleman conquistó la Vuelta a la Laguna de Chascomús donde superó a las principales figuras a nivel nacional.

    aleman demis ciclismo 1

    Regreso con gloria

    Recuperaron la cápsula y el globo desde donde saltó Féliz Baumgartner batiendo tres récords mundiales y quebrando la barrera del sonido.

    felix baumgartner 2

    Abandonar nunca, rendirse jamás

    Montañista y corredor de fondo, Fernando Vilardebó, narró sus vivencias a lo largo de los 42 kilómetros del Maratón de Buenos Aires.

    vilardebo 2

    Gallego se teñirá de Rojo

    El Tolo iniciará su tercera etapa como director técnico de Independiente de Avellaneda tras sacarlo campeón en 2002 y tercero en 2009.

    gallego independiente

    A la cárcel por el maratón acuático

    El organizador de una carrera en el Río Paraná y su encargado de seguridad fueron condenados a penas de prisión por la muerte de ocho nadadores.

    tragedia parana 1

    Elegí tu distancia, elegí Ultra Endurance Mendoza

    Inscribite con descuento en el ultramaratón de montaña que también tendrá carreras de 42, 21 y 12 kilómetros en el Cerro Arco.

    afiche ultra cerro arco horizontal

    Yoga para running, natación y ciclismo

    Beneficios de esta disciplina milenaria para quienes corren, nadan o pedalean.

    yoga 3

    Eldepornauta cumple 11 años

    El Diario Digital de los Atletas inicia su segunda década difundiendo la pasión por las disciplinas olímpicas vía web, redes sociales y radio.

    radio monitor depornauta 2

    Dream Team

    Se lanzó la Asociación de Marketing Deportivo de la Argentina que reúne a los principales profesionales a nivel nacional.

    amda

    Orgullo del deporte argentino

    El atleta paralímpico Andrés Biga ganó los 42K del Maratón de Florida en Estados Unidos en categoría HandCycle.

    biga andres 2

    La película del Maratón de Mar del Plata

    Mirá el video de la 25º edición de la carrera que batió récord de convocatoria con 8.500 corredores.

    foca 1

    Eldepornauta cumple 11 años

    El Diario Digital de los Atletas inicia su segunda década difundiendo la pasión por las disciplinas olímpicas vía web, redes sociales y radio.

    radio monitor depornauta 2

    A sus 80 años pedaleó 35,8 Km. en 1 hora

    El ciclista chileno Enzo Fatinanti batió el récord mundial de pista para su categoría de edad.

    fantinati enzo 1

    Corrió 1.000 Km. en el desierto

    La ultramaratonista sorda mexicana Isis Breiter conquistó el circuto 4 Deserts Challenger en modalidad non-stop cargando una mochila de doce kilos.

    breiter isis 1

    Rescataron a los triatletas secuestrados

    La representante olímpica Fabiola Corona, su entrenador y otros cinco deportistas fueron liberados tras ser raptados mientras entrenaban.

    fabiola corona 1

    Trasplantado de corazón rumbo al UltraMan

    Eduardo Ortíz entrena para conquistar la medalla finisher en los 510 kilómetros del triatlón más exigente a nivel internacional.

    ortiz eduardo trasplantado ciclismo 1

    Colombia domina la Vuelta a España

    Wimmer Anacona ganó la novena etapa de esta 69º edición donde su compatriota Nairo Quinta lidera la clasificación general individual.

    winner anacona llegada 1

    Le robaron la bicicleta al campeón mundial

    Número uno global de BMX, al ciclista Juan Carlos Díaz Serna le sustrajeron su rodado apenas dos semanas antes de la Copa del Mundo de Supercross.

    dia serna juan carlos bmx 2

    Yoga para running, natación y ciclismo

    Beneficios de esta disciplina milenaria para quienes corren, nadan o pedalean.

    yoga 3

    Eldepornauta cumple 11 años

    El Diario Digital de los Atletas inicia su segunda década difundiendo la pasión por las disciplinas olímpicas vía web, redes sociales y radio.

    radio monitor depornauta 2

    Running en Eldepornauta RADIO

    Hoy mirá por web o celular nuestro programa Nº182 donde el corredor Víctor Aufgang hablará sobre experiencia en el World Marathon Major que reflejó en su libro Entre Máquinas y Zapatillas.

    victor libro 2

    Consejos para aprovechar la bicicleta

    Recomendaciones para capitalizar al máximo tu esfuerzo, mejorando la condición física mediante el ciclismo MTB o rutero.

    tlg mtb 1

    Hacedor de campeones

    El entrenador Fernando Díaz Sánchez habló del auge del running y las ventajas que aporta a quienes practican otras disciplinas.

    diaz sanchez equipo 1

    Día del Periodista Deportivo

    Agradecemos a lo lectores y anunciantes que nos posicionaron como en el diario digital Nº1 de habla hispana sobre nadar; correr y pedalear.

    pancho ibañez grupal radio 1

    #Codepa2014 en televisión

    El 1º Evento de la Comunidad de Hacedores del Deporte Argentino fue transmitido por SDA TV a través de CN23, Direct TV y Telecentro.

    cortinez-2